PIMOHWEATHER Station Historical Data
Daily Summary for January 23, 2020 Units:  Metric    English   Both
Daily Weekly Monthly Yearly
  High: Low: Average:
Temperature: 34.0 °C 24.0 °C 27.9 °C
Dew Point: 22.0 °C 20.0 °C 20.8 °C
Humidity: 83% 47% 67%
Wind Speed: 25km/h 0km/h 8.8km/h
Wind Gust: 32km/h - -
Wind- - ESE
Pressure: 1016.1 hPa 1011.9 hPa -
Precipitation: 0.00 mm    
 
 
Tabular Data for January 23, 2020
Time Temperature Dew Point Pressure Wind Wind Speed Wind Gust Humidity Rainfall Rate (Hourly) solar
00:04 26.0 °C 20.0 °C 1015.7 hPa NE 2 km/h 8 km/h 70% 0.00 mm 0.00 W/m2
00:09 26.0 °C 20.0 °C 1015.7 hPa Calm   4 km/h 70% 0.00 mm 0.00 W/m2
00:14 26.0 °C 20.0 °C 1015.7 hPa Calm     70% 0.00 mm 0.00 W/m2
00:19 26.0 °C 20.0 °C 1015.6 hPa Calm     71% 0.00 mm 0.00 W/m2
00:24 26.0 °C 20.0 °C 1015.4 hPa Calm     71% 0.00 mm 0.00 W/m2
00:29 26.0 °C 20.0 °C 1015.4 hPa Calm     71% 0.00 mm 0.00 W/m2
00:34 26.0 °C 20.0 °C 1015.4 hPa Calm   4 km/h 71% 0.00 mm 0.00 W/m2
00:39 26.0 °C 20.0 °C 1015.4 hPa Calm   4 km/h 71% 0.00 mm 0.00 W/m2
00:44 26.0 °C 20.0 °C 1015.4 hPa Calm   4 km/h 71% 0.00 mm 0.00 W/m2
00:49 26.0 °C 20.0 °C 1015.4 hPa Calm     71% 0.00 mm 0.00 W/m2
00:54 26.0 °C 20.0 °C 1015.4 hPa Calm     72% 0.00 mm 0.00 W/m2
00:59 26.0 °C 20.0 °C 1015.4 hPa Calm     72% 0.00 mm 0.00 W/m2
01:04 26.0 °C 20.0 °C 1015.4 hPa Calm     72% 0.00 mm 0.00 W/m2
01:09 26.0 °C 20.0 °C 1015.4 hPa NNE 1 km/h 4 km/h 72% 0.00 mm 0.00 W/m2
01:14 26.0 °C 20.0 °C 1015.4 hPa North 2 km/h 4 km/h 72% 0.00 mm 0.00 W/m2
01:19 26.0 °C 20.0 °C 1015.4 hPa NNE 5 km/h 8 km/h 73% 0.00 mm 0.00 W/m2
01:24 26.0 °C 20.0 °C 1015.4 hPa North 6 km/h 8 km/h 73% 0.00 mm 0.00 W/m2
01:29 26.0 °C 20.0 °C 1015.4 hPa North 5 km/h 8 km/h 73% 0.00 mm 0.00 W/m2
01:34 26.0 °C 21.0 °C 1015.2 hPa North 5 km/h 8 km/h 74% 0.00 mm 0.00 W/m2
01:39 25.0 °C 21.0 °C 1015.0 hPa North 5 km/h 8 km/h 74% 0.00 mm 0.00 W/m2
01:44 25.0 °C 20.0 °C 1014.9 hPa Calm     74% 0.00 mm 0.00 W/m2
01:49 25.0 °C 20.0 °C 1014.7 hPa NNE 1 km/h 4 km/h 74% 0.00 mm 0.00 W/m2
01:54 25.0 °C 20.0 °C 1014.7 hPa Calm   4 km/h 74% 0.00 mm 0.00 W/m2
01:59 25.0 °C 20.0 °C 1014.7 hPa ESE 1 km/h 4 km/h 75% 0.00 mm 0.00 W/m2
02:04 25.0 °C 20.0 °C 1014.6 hPa Calm   4 km/h 75% 0.00 mm 0.00 W/m2
02:09 25.0 °C 20.0 °C 1014.4 hPa Calm     75% 0.00 mm 0.00 W/m2
02:14 25.0 °C 20.0 °C 1014.4 hPa Calm     75% 0.00 mm 0.00 W/m2
02:19 25.0 °C 20.0 °C 1014.4 hPa Calm     76% 0.00 mm 0.00 W/m2
02:24 25.0 °C 20.0 °C 1014.4 hPa Calm     76% 0.00 mm 0.00 W/m2
02:29 25.0 °C 20.0 °C 1014.2 hPa North 4 km/h 4 km/h 76% 0.00 mm 0.00 W/m2
02:34 25.0 °C 20.0 °C 1014.2 hPa North 5 km/h 8 km/h 76% 0.00 mm 0.00 W/m2
02:39 25.0 °C 20.0 °C 1014.2 hPa NNW 3 km/h 8 km/h 76% 0.00 mm 0.00 W/m2
02:44 25.0 °C 20.0 °C 1014.0 hPa North 3 km/h 4 km/h 76% 0.00 mm 0.00 W/m2
02:49 25.0 °C 20.0 °C 1013.8 hPa NNE 1 km/h 4 km/h 77% 0.00 mm 0.00 W/m2
02:54 25.0 °C 20.0 °C 1013.9 hPa North 1 km/h 4 km/h 77% 0.00 mm 0.00 W/m2
02:59 25.0 °C 20.0 °C 1014.0 hPa Calm   4 km/h 77% 0.00 mm 0.00 W/m2
03:04 25.0 °C 20.0 °C 1014.0 hPa Calm     77% 0.00 mm 0.00 W/m2
03:09 25.0 °C 20.0 °C 1014.0 hPa Calm     77% 0.00 mm 0.00 W/m2
03:14 25.0 °C 20.0 °C 1014.0 hPa ESE 3 km/h 4 km/h 78% 0.00 mm 0.00 W/m2
03:19 24.0 °C 20.0 °C 1014.2 hPa ENE 6 km/h 8 km/h 78% 0.00 mm 0.00 W/m2
03:24 25.0 °C 20.0 °C 1014.0 hPa NNE 8 km/h 8 km/h 78% 0.00 mm 0.00 W/m2
03:29 25.0 °C 20.0 °C 1014.0 hPa NNE 6 km/h 8 km/h 78% 0.00 mm 0.00 W/m2
03:34 24.0 °C 20.0 °C 1014.0 hPa NNE 8 km/h 8 km/h 78% 0.00 mm 0.00 W/m2
03:39 24.0 °C 21.0 °C 1014.0 hPa NNE 12 km/h 16 km/h 80% 0.00 mm 0.00 W/m2
03:44 24.0 °C 21.0 °C 1014.0 hPa NNE 9 km/h 16 km/h 81% 0.00 mm 0.00 W/m2
03:49 24.0 °C 21.0 °C 1014.0 hPa North 10 km/h 12 km/h 81% 0.00 mm 0.00 W/m2
03:54 24.0 °C 21.0 °C 1013.7 hPa North 10 km/h 12 km/h 81% 0.00 mm 0.00 W/m2
03:59 24.0 °C 21.0 °C 1013.7 hPa North 7 km/h 12 km/h 82% 0.00 mm 0.00 W/m2
04:04 24.0 °C 21.0 °C 1014.1 hPa North 8 km/h 12 km/h 82% 0.00 mm 0.00 W/m2
04:09 24.0 °C 21.0 °C 1014.1 hPa NNE 3 km/h 4 km/h 82% 0.00 mm 0.00 W/m2
04:14 24.0 °C 20.0 °C 1013.7 hPa East 2 km/h 4 km/h 82% 0.00 mm 0.00 W/m2
04:19 24.0 °C 20.0 °C 1013.7 hPa NNE 4 km/h 4 km/h 81% 0.00 mm 0.00 W/m2
04:24 24.0 °C 20.0 °C 1013.9 hPa North 5 km/h 8 km/h 81% 0.00 mm 0.00 W/m2
04:29 24.0 °C 20.0 °C 1013.9 hPa North 5 km/h 8 km/h 81% 0.00 mm 0.00 W/m2
04:34 24.0 °C 20.0 °C 1014.1 hPa North 5 km/h 8 km/h 82% 0.00 mm 0.00 W/m2
04:39 24.0 °C 21.0 °C 1014.1 hPa North 5 km/h 8 km/h 82% 0.00 mm 0.00 W/m2
04:44 24.0 °C 21.0 °C 1014.1 hPa NNW 5 km/h 8 km/h 82% 0.00 mm 0.00 W/m2
04:49 24.0 °C 21.0 °C 1014.1 hPa North 1 km/h 4 km/h 82% 0.00 mm 0.00 W/m2
04:54 24.0 °C 21.0 °C 1014.3 hPa South 2 km/h 4 km/h 82% 0.00 mm 0.00 W/m2
04:59 24.0 °C 21.0 °C 1014.4 hPa NW 6 km/h 8 km/h 82% 0.00 mm 0.00 W/m2
05:04 24.0 °C 21.0 °C 1014.4 hPa North 1 km/h 4 km/h 83% 0.00 mm 0.00 W/m2
05:09 24.0 °C 21.0 °C 1014.4 hPa North 5 km/h 8 km/h 83% 0.00 mm 0.00 W/m2
05:14 24.0 °C 21.0 °C 1014.4 hPa North 4 km/h 8 km/h 83% 0.00 mm 0.00 W/m2
05:19 24.0 °C 21.0 °C 1014.3 hPa NNE 1 km/h 4 km/h 83% 0.00 mm 0.00 W/m2
05:24 24.0 °C 21.0 °C 1014.4 hPa Calm     82% 0.00 mm 0.00 W/m2
05:29 24.0 °C 21.0 °C 1014.4 hPa Calm     82% 0.00 mm 0.00 W/m2
05:34 24.0 °C 21.0 °C 1014.4 hPa Calm     82% 0.00 mm 0.00 W/m2
05:39 24.0 °C 21.0 °C 1014.4 hPa Calm     82% 0.00 mm 0.00 W/m2
05:44 24.0 °C 21.0 °C 1014.4 hPa Calm     82% 0.00 mm 0.00 W/m2
05:49 24.0 °C 21.0 °C 1014.4 hPa Calm     82% 0.00 mm 0.00 W/m2
05:54 24.0 °C 21.0 °C 1014.4 hPa Calm     82% 0.00 mm 0.00 W/m2
05:59 24.0 °C 21.0 °C 1014.4 hPa Calm     81% 0.00 mm 0.00 W/m2
06:04 24.0 °C 21.0 °C 1014.4 hPa Calm     81% 0.00 mm 0.00 W/m2
06:09 24.0 °C 21.0 °C 1014.4 hPa Calm     81% 0.00 mm 0.00 W/m2
06:14 24.0 °C 21.0 °C 1014.4 hPa Calm     81% 0.00 mm 0.00 W/m2
06:19 24.0 °C 21.0 °C 1014.7 hPa Calm     81% 0.00 mm 0.00 W/m2
06:24 25.0 °C 21.0 °C 1014.7 hPa Calm     81% 0.00 mm 0.00 W/m2
06:29 25.0 °C 21.0 °C 1014.7 hPa Calm     81% 0.00 mm 0.58 W/m2
06:34 25.0 °C 21.0 °C 1014.7 hPa NW 3 km/h 4 km/h 80% 0.00 mm 2.70 W/m2
06:39 25.0 °C 21.0 °C 1014.9 hPa NNW 4 km/h 4 km/h 80% 0.00 mm 5.78 W/m2
06:44 25.0 °C 21.0 °C 1014.7 hPa NW 3 km/h 4 km/h 80% 0.00 mm 9.49 W/m2
06:49 25.0 °C 21.0 °C 1015.0 hPa Calm     80% 0.00 mm 11.53 W/m2
06:54 25.0 °C 21.0 °C 1015.0 hPa Calm     80% 0.00 mm 13.54 W/m2
06:59 25.0 °C 21.0 °C 1015.0 hPa Calm     80% 0.00 mm 22.71 W/m2
07:04 25.0 °C 21.0 °C 1015.0 hPa Calm     80% 0.00 mm 28.90 W/m2
07:09 25.0 °C 21.0 °C 1015.0 hPa NW 10 km/h 12 km/h 80% 0.00 mm 34.65 W/m2
07:14 25.0 °C 21.0 °C 1015.0 hPa NW 8 km/h 12 km/h 80% 0.00 mm 35.44 W/m2
07:19 25.0 °C 21.0 °C 1015.4 hPa NW 8 km/h 8 km/h 80% 0.00 mm 41.95 W/m2
07:24 25.0 °C 21.0 °C 1015.4 hPa North 4 km/h 4 km/h 80% 0.00 mm 48.11 W/m2
07:29 25.0 °C 21.0 °C 1015.4 hPa North 5 km/h 8 km/h 80% 0.00 mm 50.10 W/m2
07:34 25.0 °C 21.0 °C 1015.4 hPa North 5 km/h 8 km/h 80% 0.00 mm 61.25 W/m2
07:39 25.0 °C 21.0 °C 1015.4 hPa WNW 5 km/h 8 km/h 80% 0.00 mm 74.51 W/m2
07:44 26.0 °C 22.0 °C 1015.4 hPa Calm   4 km/h 79% 0.00 mm 90.62 W/m2
07:49 26.0 °C 22.0 °C 1015.7 hPa Calm   4 km/h 78% 0.00 mm 93.58 W/m2
07:54 28.0 °C 22.0 °C 1015.7 hPa Calm     75% 0.00 mm 102.76 W/m2
07:59 28.0 °C 22.0 °C 1015.7 hPa NNW 4 km/h 8 km/h 72% 0.00 mm 89.82 W/m2
08:04 27.0 °C 21.0 °C 1015.7 hPa WNW 7 km/h 8 km/h 75% 0.00 mm 79.86 W/m2
08:09 26.0 °C 22.0 °C 1015.7 hPa NW 5 km/h 8 km/h 75% 0.00 mm 71.42 W/m2
08:14 26.0 °C 22.0 °C 1015.7 hPa NNW 4 km/h 8 km/h 76% 0.00 mm 116.24 W/m2
08:19 27.0 °C 22.0 °C 1015.7 hPa NNW 5 km/h 8 km/h 75% 0.00 mm 130.01 W/m2
08:24 27.0 °C 22.0 °C 1015.7 hPa NNW 5 km/h 8 km/h 76% 0.00 mm 142.49 W/m2
08:29 27.0 °C 22.0 °C 1015.9 hPa North 7 km/h 8 km/h 76% 0.00 mm 145.58 W/m2
08:34 27.0 °C 22.0 °C 1016.1 hPa NNW 6 km/h 8 km/h 75% 0.00 mm 147.14 W/m2
08:39 28.0 °C 22.0 °C 1016.1 hPa NW 6 km/h 8 km/h 73% 0.00 mm 163.85 W/m2
08:44 29.0 °C 22.0 °C 1015.9 hPa SW 1 km/h 4 km/h 71% 0.00 mm 161.26 W/m2
08:49 29.0 °C 22.0 °C 1016.0 hPa SSE 5 km/h 8 km/h 69% 0.00 mm 162.85 W/m2
08:54 30.0 °C 22.0 °C 1016.0 hPa ENE 4 km/h 8 km/h 65% 0.00 mm 169.28 W/m2
08:59 30.0 °C 22.0 °C 1016.0 hPa SE 12 km/h 12 km/h 61% 0.00 mm 178.29 W/m2
09:04 30.0 °C 22.0 °C 1016.0 hPa ESE 8 km/h 12 km/h 63% 0.00 mm 187.51 W/m2
09:09 30.0 °C 22.0 °C 1016.0 hPa NNE 10 km/h 12 km/h 62% 0.00 mm 197.40 W/m2
09:14 30.0 °C 22.0 °C 1016.0 hPa NE 9 km/h 12 km/h 62% 0.00 mm 203.15 W/m2
09:19 30.0 °C 22.0 °C 1015.8 hPa East 9 km/h 12 km/h 63% 0.00 mm 213.08 W/m2
09:24 30.0 °C 22.0 °C 1016.0 hPa ENE 11 km/h 12 km/h 61% 0.00 mm 221.15 W/m2
09:29 30.0 °C 21.0 °C 1016.0 hPa ESE 10 km/h 12 km/h 60% 0.00 mm 237.91 W/m2
09:34 30.0 °C 21.0 °C 1016.0 hPa NE 12 km/h 16 km/h 61% 0.00 mm 252.96 W/m2
09:39 30.0 °C 21.0 °C 1016.0 hPa NE 14 km/h 16 km/h 61% 0.00 mm 267.06 W/m2
09:44 31.0 °C 21.0 °C 1016.0 hPa ENE 8 km/h 16 km/h 60% 0.00 mm 298.57 W/m2
09:49 31.0 °C 22.0 °C 1016.0 hPa ESE 8 km/h 12 km/h 58% 0.00 mm 318.36 W/m2
09:54 31.0 °C 21.0 °C 1016.0 hPa ENE 13 km/h 20 km/h 58% 0.00 mm 323.67 W/m2
09:59 31.0 °C 21.0 °C 1015.7 hPa ENE 10 km/h 28 km/h 57% 0.00 mm 355.82 W/m2
10:04 31.0 °C 21.0 °C 1015.7 hPa East 8 km/h 12 km/h 56% 0.00 mm 364.83 W/m2
10:09 31.0 °C 21.0 °C 1015.9 hPa ENE 9 km/h 16 km/h 55% 0.00 mm 363.99 W/m2
10:14 31.0 °C 21.0 °C 1015.7 hPa ESE 15 km/h 20 km/h 55% 0.00 mm 361.12 W/m2
10:19 31.0 °C 21.0 °C 1015.6 hPa ESE 14 km/h 16 km/h 55% 0.00 mm 354.89 W/m2
10:24 31.0 °C 21.0 °C 1015.6 hPa ESE 15 km/h 20 km/h 54% 0.00 mm 353.55 W/m2
10:29 31.0 °C 21.0 °C 1015.4 hPa ESE 14 km/h 16 km/h 54% 0.00 mm 356.75 W/m2
10:34 31.0 °C 21.0 °C 1015.4 hPa NNW 7 km/h 8 km/h 54% 0.00 mm 371.04 W/m2
10:39 32.0 °C 21.0 °C 1015.3 hPa East 15 km/h 16 km/h 53% 0.00 mm 392.79 W/m2
10:44 32.0 °C 21.0 °C 1015.3 hPa North 17 km/h 20 km/h 54% 0.00 mm 401.11 W/m2
10:49 31.0 °C 21.0 °C 1015.3 hPa NNE 14 km/h 20 km/h 55% 0.00 mm 425.90 W/m2
10:54 32.0 °C 21.0 °C 1015.3 hPa NNW 14 km/h 20 km/h 54% 0.00 mm 428.12 W/m2
10:59 31.0 °C 21.0 °C 1014.9 hPa North 14 km/h 20 km/h 55% 0.00 mm 436.22 W/m2
11:04 31.0 °C 21.0 °C 1014.9 hPa North 17 km/h 20 km/h 55% 0.00 mm 425.73 W/m2
11:09 32.0 °C 21.0 °C 1014.9 hPa NNE 20 km/h 24 km/h 54% 0.00 mm 432.85 W/m2
11:14 31.0 °C 21.0 °C 1014.9 hPa NNE 18 km/h 24 km/h 54% 0.00 mm 456.68 W/m2
11:19 32.0 °C 21.0 °C 1014.6 hPa North 18 km/h 20 km/h 54% 0.00 mm 317.87 W/m2
11:24 31.0 °C 20.0 °C 1014.6 hPa North 22 km/h 28 km/h 54% 0.00 mm 419.31 W/m2
11:29 31.0 °C 20.0 °C 1014.6 hPa NNE 17 km/h 20 km/h 53% 0.00 mm 414.18 W/m2
11:34 31.0 °C 20.0 °C 1014.5 hPa NE 9 km/h 12 km/h 52% 0.00 mm 419.51 W/m2
11:39 32.0 °C 20.0 °C 1014.3 hPa ESE 15 km/h 20 km/h 52% 0.00 mm 429.59 W/m2
11:44 32.0 °C 20.0 °C 1014.3 hPa ESE 15 km/h 20 km/h 50% 0.00 mm 429.76 W/m2
11:49 33.0 °C 21.0 °C 1014.3 hPa SE 13 km/h 16 km/h 49% 0.00 mm 442.51 W/m2
11:54 33.0 °C 20.0 °C 1014.3 hPa SE 19 km/h 24 km/h 48% 0.00 mm 443.56 W/m2
11:59 32.0 °C 20.0 °C 1014.3 hPa ESE 14 km/h 16 km/h 49% 0.00 mm 427.32 W/m2
12:04 33.0 °C 20.0 °C 1013.9 hPa SE 21 km/h 24 km/h 49% 0.00 mm 432.45 W/m2
12:09 33.0 °C 20.0 °C 1013.9 hPa East 18 km/h 24 km/h 49% 0.00 mm 428.72 W/m2
12:14 33.0 °C 20.0 °C 1013.8 hPa East 5 km/h 8 km/h 47% 0.00 mm 419.54 W/m2
12:19 33.0 °C 20.0 °C 1013.6 hPa NE 15 km/h 20 km/h 49% 0.00 mm 418.97 W/m2
12:24 33.0 °C 20.0 °C 1013.6 hPa ENE 13 km/h 20 km/h 49% 0.00 mm 424.82 W/m2
12:29 33.0 °C 20.0 °C 1013.6 hPa ESE 16 km/h 20 km/h 48% 0.00 mm 441.97 W/m2
12:34 33.0 °C 20.0 °C 1013.6 hPa ESE 14 km/h 16 km/h 48% 0.00 mm 470.28 W/m2
12:39 33.0 °C 20.0 °C 1013.4 hPa SE 10 km/h 16 km/h 49% 0.00 mm 497.78 W/m2
12:44 33.0 °C 20.0 °C 1013.2 hPa ENE 13 km/h 16 km/h 48% 0.00 mm 472.31 W/m2
12:49 33.0 °C 20.0 °C 1013.2 hPa East 15 km/h 20 km/h 48% 0.00 mm 442.73 W/m2
12:54 33.0 °C 20.0 °C 1013.2 hPa SE 10 km/h 16 km/h 48% 0.00 mm 453.28 W/m2
12:59 33.0 °C 20.0 °C 1013.2 hPa ESE 12 km/h 16 km/h 47% 0.00 mm 460.59 W/m2
13:04 33.0 °C 20.0 °C 1013.1 hPa ESE 12 km/h 16 km/h 47% 0.00 mm 459.58 W/m2
13:09 34.0 °C 21.0 °C 1012.9 hPa SSE 13 km/h 16 km/h 48% 0.00 mm 478.11 W/m2
13:14 33.0 °C 21.0 °C 1012.9 hPa NW 14 km/h 16 km/h 54% 0.00 mm 482.05 W/m2
13:19 33.0 °C 22.0 °C 1012.7 hPa SSW 10 km/h 16 km/h 55% 0.00 mm 505.88 W/m2
13:24 33.0 °C 22.0 °C 1012.7 hPa WNW 10 km/h 16 km/h 54% 0.00 mm 501.04 W/m2
13:29 33.0 °C 22.0 °C 1012.5 hPa WSW 8 km/h 12 km/h 53% 0.00 mm 472.56 W/m2
13:34 33.0 °C 22.0 °C 1012.5 hPa South 10 km/h 12 km/h 54% 0.00 mm 472.80 W/m2
13:39 32.0 °C 22.0 °C 1012.5 hPa South 12 km/h 16 km/h 55% 0.00 mm 316.43 W/m2
13:44 32.0 °C 22.0 °C 1012.5 hPa South 10 km/h 16 km/h 55% 0.00 mm 173.40 W/m2
13:49 32.0 °C 22.0 °C 1012.2 hPa SSW 14 km/h 16 km/h 55% 0.00 mm 418.51 W/m2
13:54 32.0 °C 22.0 °C 1012.2 hPa South 11 km/h 16 km/h 56% 0.00 mm 434.51 W/m2
13:59 31.0 °C 22.0 °C 1012.2 hPa SSW 20 km/h 24 km/h 59% 0.00 mm 412.32 W/m2
14:04 32.0 °C 22.0 °C 1012.2 hPa SW 12 km/h 20 km/h 56% 0.00 mm 432.38 W/m2
14:09 32.0 °C 22.0 °C 1012.1 hPa SW 15 km/h 16 km/h 56% 0.00 mm 438.15 W/m2
14:14 32.0 °C 22.0 °C 1012.2 hPa SSW 15 km/h 20 km/h 58% 0.00 mm 443.12 W/m2
14:19 32.0 °C 22.0 °C 1011.9 hPa WSW 12 km/h 16 km/h 57% 0.00 mm 450.58 W/m2
14:24 32.0 °C 22.0 °C 1011.9 hPa SSW 13 km/h 20 km/h 57% 0.00 mm 461.13 W/m2
14:29 32.0 °C 22.0 °C 1011.9 hPa South 11 km/h 16 km/h 56% 0.00 mm 472.78 W/m2
14:34 32.0 °C 22.0 °C 1011.9 hPa SSW 10 km/h 16 km/h 56% 0.00 mm 457.09 W/m2
14:39 32.0 °C 22.0 °C 1011.9 hPa WNW 10 km/h 16 km/h 57% 0.00 mm 399.74 W/m2
14:44 32.0 °C 22.0 °C 1011.9 hPa WSW 14 km/h 16 km/h 57% 0.00 mm 386.14 W/m2
14:49 32.0 °C 22.0 °C 1011.9 hPa SW 12 km/h 16 km/h 57% 0.00 mm 401.21 W/m2
14:54 31.0 °C 22.0 °C 1011.9 hPa WNW 13 km/h 24 km/h 57% 0.00 mm 452.49 W/m2
14:59 31.0 °C 22.0 °C 1011.9 hPa SW 10 km/h 12 km/h 57% 0.00 mm 450.71 W/m2
15:04 32.0 °C 22.0 °C 1011.9 hPa SW 12 km/h 16 km/h 57% 0.00 mm 199.36 W/m2
15:09 31.0 °C 21.0 °C 1011.9 hPa WNW 18 km/h 24 km/h 58% 0.00 mm 289.54 W/m2
15:14 31.0 °C 22.0 °C 1011.9 hPa NW 14 km/h 16 km/h 58% 0.00 mm 168.15 W/m2
15:19 31.0 °C 22.0 °C 1011.9 hPa NW 15 km/h 20 km/h 59% 0.00 mm 275.81 W/m2
15:24 31.0 °C 22.0 °C 1011.9 hPa WNW 12 km/h 20 km/h 60% 0.00 mm 126.01 W/m2
15:29 31.0 °C 21.0 °C 1011.9 hPa NW 12 km/h 12 km/h 58% 0.00 mm 125.98 W/m2
15:34 31.0 °C 21.0 °C 1011.9 hPa WNW 14 km/h 16 km/h 57% 0.00 mm 130.19 W/m2
15:39 31.0 °C 21.0 °C 1011.9 hPa WNW 13 km/h 20 km/h 57% 0.00 mm 230.48 W/m2
15:44 31.0 °C 21.0 °C 1011.9 hPa WNW 12 km/h 12 km/h 58% 0.00 mm 123.16 W/m2
15:49 31.0 °C 21.0 °C 1012.2 hPa NW 16 km/h 20 km/h 57% 0.00 mm 339.85 W/m2
15:54 31.0 °C 21.0 °C 1012.2 hPa NW 5 km/h 8 km/h 57% 0.00 mm 340.53 W/m2
15:59 31.0 °C 21.0 °C 1012.2 hPa NW 13 km/h 16 km/h 57% 0.00 mm 210.12 W/m2
16:04 31.0 °C 21.0 °C 1012.2 hPa NW 14 km/h 16 km/h 58% 0.00 mm 176.80 W/m2
16:09 31.0 °C 21.0 °C 1012.2 hPa WNW 11 km/h 12 km/h 59% 0.00 mm 93.30 W/m2
16:14 30.0 °C 21.0 °C 1012.4 hPa ESE 4 km/h 8 km/h 58% 0.00 mm 86.02 W/m2
16:19 30.0 °C 21.0 °C 1012.6 hPa NNW 4 km/h 8 km/h 58% 0.00 mm 71.09 W/m2
16:24 30.0 °C 21.0 °C 1012.6 hPa North 7 km/h 12 km/h 58% 0.00 mm 50.35 W/m2
16:29 30.0 °C 21.0 °C 1012.6 hPa ESE 8 km/h 12 km/h 58% 0.00 mm 125.49 W/m2
16:34 30.0 °C 21.0 °C 1012.6 hPa WSW 15 km/h 20 km/h 57% 0.00 mm 39.82 W/m2
16:39 30.0 °C 21.0 °C 1012.6 hPa NE 19 km/h 24 km/h 58% 0.00 mm 43.12 W/m2
16:44 30.0 °C 21.0 °C 1012.9 hPa NE 22 km/h 28 km/h 59% 0.00 mm 42.49 W/m2
16:49 30.0 °C 21.0 °C 1012.9 hPa NNE 21 km/h 24 km/h 59% 0.00 mm 39.08 W/m2
16:54 30.0 °C 21.0 °C 1012.9 hPa NNE 16 km/h 20 km/h 59% 0.00 mm 37.16 W/m2
16:59 30.0 °C 21.0 °C 1012.9 hPa NNE 25 km/h 28 km/h 59% 0.00 mm 36.24 W/m2
17:04 29.0 °C 21.0 °C 1013.1 hPa NNE 24 km/h 28 km/h 60% 0.00 mm 33.81 W/m2
17:09 29.0 °C 21.0 °C 1013.3 hPa NNE 18 km/h 20 km/h 60% 0.00 mm 29.95 W/m2
17:14 29.0 °C 21.0 °C 1013.3 hPa NNE 18 km/h 20 km/h 60% 0.00 mm 25.70 W/m2
17:19 29.0 °C 20.0 °C 1013.5 hPa NNE 14 km/h 16 km/h 60% 0.00 mm 22.74 W/m2
17:24 29.0 °C 20.0 °C 1013.3 hPa NNE 20 km/h 24 km/h 60% 0.00 mm 19.94 W/m2
17:29 29.0 °C 20.0 °C 1013.6 hPa NNE 17 km/h 28 km/h 60% 0.00 mm 20.46 W/m2
17:34 29.0 °C 20.0 °C 1013.5 hPa NNE 24 km/h 32 km/h 61% 0.00 mm 19.09 W/m2
17:39 29.0 °C 20.0 °C 1013.6 hPa North 15 km/h 20 km/h 61% 0.00 mm 12.18 W/m2
17:44 29.0 °C 20.0 °C 1013.5 hPa NNE 14 km/h 20 km/h 61% 0.00 mm 7.00 W/m2
17:49 29.0 °C 20.0 °C 1013.6 hPa NNE 18 km/h 20 km/h 61% 0.00 mm 4.21 W/m2
17:54 28.0 °C 20.0 °C 1013.6 hPa NNE 17 km/h 20 km/h 61% 0.00 mm 1.80 W/m2
17:59 28.0 °C 20.0 °C 1013.6 hPa NNE 17 km/h 20 km/h 62% 0.00 mm 0.00 W/m2
18:04 28.0 °C 20.0 °C 1013.6 hPa NNE 21 km/h 24 km/h 62% 0.00 mm 0.00 W/m2
18:09 28.0 °C 20.0 °C 1013.6 hPa NNE 18 km/h 24 km/h 62% 0.00 mm 0.00 W/m2
18:14 28.0 °C 20.0 °C 1013.7 hPa North 22 km/h 28 km/h 62% 0.00 mm 0.00 W/m2
18:19 28.0 °C 20.0 °C 1013.7 hPa NNE 17 km/h 24 km/h 63% 0.00 mm 0.00 W/m2
18:24 28.0 °C 20.0 °C 1013.7 hPa NNE 10 km/h 16 km/h 63% 0.00 mm 0.00 W/m2
18:29 28.0 °C 20.0 °C 1013.7 hPa NNE 17 km/h 20 km/h 64% 0.00 mm 0.00 W/m2
18:34 28.0 °C 20.0 °C 1014.0 hPa NNE 12 km/h 16 km/h 64% 0.00 mm 0.00 W/m2
18:39 27.0 °C 20.0 °C 1013.9 hPa North 10 km/h 12 km/h 64% 0.00 mm 0.00 W/m2
18:44 27.0 °C 20.0 °C 1014.0 hPa NNE 10 km/h 12 km/h 64% 0.00 mm 0.00 W/m2
18:49 27.0 °C 20.0 °C 1014.0 hPa NNE 12 km/h 16 km/h 65% 0.00 mm 0.00 W/m2
18:54 27.0 °C 20.0 °C 1014.0 hPa NNE 9 km/h 12 km/h 65% 0.00 mm 0.00 W/m2
18:59 27.0 °C 20.0 °C 1014.0 hPa NNE 12 km/h 12 km/h 65% 0.00 mm 0.00 W/m2
19:04 27.0 °C 20.0 °C 1014.3 hPa NNE 13 km/h 16 km/h 66% 0.00 mm 0.00 W/m2
19:09 27.0 °C 20.0 °C 1014.3 hPa NNE 15 km/h 20 km/h 66% 0.00 mm 0.00 W/m2
19:14 27.0 °C 20.0 °C 1014.3 hPa NNE 14 km/h 16 km/h 66% 0.00 mm 0.00 W/m2
19:19 27.0 °C 20.0 °C 1014.3 hPa NNE 15 km/h 16 km/h 67% 0.00 mm 0.00 W/m2
19:24 27.0 °C 20.0 °C 1014.3 hPa NNE 10 km/h 16 km/h 67% 0.00 mm 0.00 W/m2
19:29 27.0 °C 20.0 °C 1014.3 hPa North 10 km/h 12 km/h 67% 0.00 mm 0.00 W/m2
19:34 27.0 °C 20.0 °C 1014.3 hPa NNE 10 km/h 16 km/h 67% 0.00 mm 0.00 W/m2
19:39 27.0 °C 20.0 °C 1014.3 hPa North 9 km/h 12 km/h 67% 0.00 mm 0.00 W/m2
19:44 27.0 °C 20.0 °C 1014.3 hPa North 9 km/h 12 km/h 67% 0.00 mm 0.00 W/m2
19:49 27.0 °C 20.0 °C 1014.7 hPa NNE 10 km/h 12 km/h 67% 0.00 mm 0.00 W/m2
19:54 27.0 °C 20.0 °C 1014.7 hPa North 15 km/h 16 km/h 67% 0.00 mm 0.00 W/m2
19:59 27.0 °C 20.0 °C 1014.7 hPa NNE 14 km/h 16 km/h 67% 0.00 mm 0.00 W/m2
20:04 27.0 °C 20.0 °C 1014.7 hPa NNE 10 km/h 16 km/h 67% 0.00 mm 0.00 W/m2
20:09 27.0 °C 20.0 °C 1014.5 hPa North 10 km/h 12 km/h 67% 0.00 mm 0.00 W/m2
20:14 27.0 °C 20.0 °C 1014.3 hPa North 10 km/h 12 km/h 66% 0.00 mm 0.00 W/m2
20:19 27.0 °C 20.0 °C 1014.5 hPa NNE 9 km/h 12 km/h 66% 0.00 mm 0.00 W/m2
20:24 27.0 °C 20.0 °C 1014.5 hPa NNE 10 km/h 12 km/h 66% 0.00 mm 0.00 W/m2
20:29 27.0 °C 20.0 °C 1014.3 hPa NNE 13 km/h 16 km/h 66% 0.00 mm 0.00 W/m2
20:34 27.0 °C 20.0 °C 1014.7 hPa NNE 10 km/h 12 km/h 66% 0.00 mm 0.00 W/m2
20:39 27.0 °C 20.0 °C 1014.7 hPa NNE 11 km/h 16 km/h 66% 0.00 mm 0.00 W/m2
20:44 27.0 °C 20.0 °C 1014.9 hPa NNE 8 km/h 16 km/h 65% 0.00 mm 0.00 W/m2
20:49 27.0 °C 20.0 °C 1015.0 hPa North 10 km/h 12 km/h 65% 0.00 mm 0.00 W/m2
20:54 27.0 °C 20.0 °C 1015.0 hPa North 10 km/h 16 km/h 65% 0.00 mm 0.00 W/m2
20:59 27.0 °C 20.0 °C 1015.0 hPa NNE 13 km/h 16 km/h 65% 0.00 mm 0.00 W/m2
21:04 27.0 °C 20.0 °C 1015.0 hPa NNE 12 km/h 16 km/h 65% 0.00 mm 0.00 W/m2
21:09 27.0 °C 20.0 °C 1015.0 hPa NNE 6 km/h 12 km/h 65% 0.00 mm 0.00 W/m2
21:14 27.0 °C 20.0 °C 1015.0 hPa NNE 9 km/h 12 km/h 66% 0.00 mm 0.00 W/m2
21:19 27.0 °C 20.0 °C 1014.9 hPa NNE 12 km/h 12 km/h 66% 0.00 mm 0.00 W/m2
21:24 27.0 °C 20.0 °C 1015.0 hPa North 8 km/h 12 km/h 66% 0.00 mm 0.00 W/m2
21:29 27.0 °C 20.0 °C 1015.1 hPa NNE 9 km/h 12 km/h 67% 0.00 mm 0.00 W/m2
21:34 27.0 °C 20.0 °C 1015.2 hPa NNE 12 km/h 12 km/h 69% 0.00 mm 0.00 W/m2
21:39 27.0 °C 21.0 °C 1015.0 hPa NNE 9 km/h 12 km/h 69% 0.00 mm 0.00 W/m2
21:44 27.0 °C 21.0 °C 1015.1 hPa NNE 13 km/h 16 km/h 70% 0.00 mm 0.00 W/m2
21:49 27.0 °C 21.0 °C 1015.2 hPa NNE 12 km/h 16 km/h 70% 0.00 mm 0.00 W/m2
21:54 27.0 °C 21.0 °C 1015.0 hPa NNE 8 km/h 8 km/h 70% 0.00 mm 0.00 W/m2
21:59 27.0 °C 21.0 °C 1015.0 hPa NNE 12 km/h 16 km/h 70% 0.00 mm 0.00 W/m2
22:04 26.0 °C 21.0 °C 1015.0 hPa NNE 9 km/h 12 km/h 70% 0.00 mm 0.00 W/m2
22:09 27.0 °C 21.0 °C 1015.0 hPa NNE 11 km/h 12 km/h 71% 0.00 mm 0.00 W/m2
22:14 26.0 °C 21.0 °C 1015.0 hPa NNE 10 km/h 12 km/h 72% 0.00 mm 0.00 W/m2
22:19 26.0 °C 21.0 °C 1015.0 hPa NNE 10 km/h 12 km/h 72% 0.00 mm 0.00 W/m2
22:24 26.0 °C 21.0 °C 1015.0 hPa North 6 km/h 8 km/h 72% 0.00 mm 0.00 W/m2
22:29 26.0 °C 21.0 °C 1015.0 hPa NNE 10 km/h 16 km/h 74% 0.00 mm 0.00 W/m2
22:34 26.0 °C 21.0 °C 1015.0 hPa NNE 9 km/h 12 km/h 74% 0.00 mm 0.00 W/m2
22:39 26.0 °C 21.0 °C 1015.0 hPa North 10 km/h 12 km/h 74% 0.00 mm 0.00 W/m2
22:44 26.0 °C 21.0 °C 1015.0 hPa NNE 12 km/h 12 km/h 74% 0.00 mm 0.00 W/m2
22:49 26.0 °C 21.0 °C 1015.0 hPa NE 5 km/h 8 km/h 74% 0.00 mm 0.00 W/m2
22:54 26.0 °C 21.0 °C 1015.0 hPa NNE 4 km/h 12 km/h 74% 0.00 mm 0.00 W/m2
22:59 26.0 °C 21.0 °C 1015.0 hPa NNE 8 km/h 8 km/h 74% 0.00 mm 0.00 W/m2
23:04 26.0 °C 21.0 °C 1014.9 hPa NNE 5 km/h 8 km/h 75% 0.00 mm 0.00 W/m2
23:09 26.0 °C 21.0 °C 1015.0 hPa North 6 km/h 8 km/h 74% 0.00 mm 0.00 W/m2
23:14 26.0 °C 21.0 °C 1014.9 hPa NNE 3 km/h 8 km/h 74% 0.00 mm 0.00 W/m2
23:19 26.0 °C 21.0 °C 1014.9 hPa North 6 km/h 8 km/h 74% 0.00 mm 0.00 W/m2
23:24 26.0 °C 21.0 °C 1014.7 hPa North 9 km/h 12 km/h 74% 0.00 mm 0.00 W/m2
23:29 26.0 °C 21.0 °C 1014.7 hPa North 8 km/h 12 km/h 74% 0.00 mm 0.00 W/m2
23:34 26.0 °C 21.0 °C 1014.7 hPa NNW 10 km/h 12 km/h 75% 0.00 mm 0.00 W/m2
23:39 26.0 °C 21.0 °C 1014.7 hPa North 8 km/h 12 km/h 75% 0.00 mm 0.00 W/m2
23:44 26.0 °C 21.0 °C 1014.7 hPa North 10 km/h 12 km/h 75% 0.00 mm 0.00 W/m2
23:49 26.0 °C 21.0 °C 1014.6 hPa NNW 5 km/h 8 km/h 76% 0.00 mm 0.00 W/m2
23:54 26.0 °C 21.0 °C 1014.7 hPa North 11 km/h 12 km/h 77% 0.00 mm 0.00 W/m2
23:59 26.0 °C 21.0 °C 1014.5 hPa NNE 8 km/h 8 km/h 78% 0.00 mm 0.00 W/m2
PIMOHWEATHER Philippines
Compliments of Weather Underground - 2 mb